{"data":{"norad_id":65531,"epoch":"2026-09-20T22:14:30.545952Z","epoch_age_seconds":75103,"freshness":"FRESH","line1":"1 65531U 25200M   26263.92674243  .00018055  00000+0  56011-3 0  9999","line2":"2 65531  97.2885 330.2631 0000920  84.7674 275.3674 15.33452428 58707","mean_motion":15.33452428,"eccentricity":9.2e-5,"inclination_deg":97.2885,"raan_deg":330.2631,"arg_perigee_deg":84.7674,"mean_anomaly_deg":275.3674,"bstar":0.00056011,"rev_number":5870,"period_min":93.905749777847,"perigee_km":464.89145752257,"apogee_km":466.1506906082,"semimajor_km":6843.6580740654,"source":"CELESTRAK","updated_at":"2026-09-21T09:00:35.649834Z"}}